Showing default

MAUVE, 66756

Orbit data source: Space-Track

MAUVE, 66756 is a Hungarian payload satellite in SSO that was launched on Fri, 28 Nov 2025 UTC via an FALCON 9 launch vehicle from the Air Force Western Test Range (AFWTR). Payload-class satellites include a variety of spacecraft equipped with specific instruments for various scientific and technological missions. These include communications satellites like Starlink; space stations such as the ISS; scientific satellites like the Hubble; Earth observation satellites from companies like Planet Labs, Umbra, and HawkEye 360; GPS; miniature CubeSats for education and research; and military/defense satellites.

Loading next visibility...
Identifier
66756, 2025-276CU
Orbit
SSO
Country
Flag of HUHU / HUN
Related business
Manufacturer
C3S
Mission
Operational Commercial Astronomy
Bus & Motor
CUBESAT 16U, Unknown motor
Mass
24 kg wet, 24 kg dry
Launch date (UTC)
2025-11-28 (9 months ago)
Launch vehicle
FALCON 9
Launch site
Air Force Western Test Range (AFWTR)
Object type
Payload
Rocket body
Debris
Shape & HBR
Box + 2 Pan, 0.3 m
Radar Cross Section
0.124 m², Medium (>0.1 m² and < 1m²)

Expand to show TLE details & history
Last TLE update: 18 hours ago

TLE from 18 hours ago
0 MAUVE
1 66756U 25276CU  26238.18791003  .00005562  00000-0  25067-3 0  9993
2 66756  97.4163 310.8752 0003366  82.7844 277.3774 15.21436855 41078
Epoch: 2026-08-26T04:30Z
TLE epoch observation values (Epoch: 2026-08-26T04:30:35.426Z)
Latitude
-0.00008°
Longitude
-91.2169°
Altitude
504.301 km
Speed
7.612 km/s
True Right ascension
20h 43m 30s
True Declination
0° 00' 00"
Sunlit
Object was in full shadow at epoch
Visualization orbit readout
Latitude
Unknown
Longitude
Unknown
Altitude
Unknown
Speed
Unknown
Apparent Right ascension
Unknown
Apparent Declination
Unknown
Sunlit
N/A
Visualization observer readout
Local Sidereal Time
13:31:16
Azimuth
Unknown
Elevation
Unknown
Doppler factor
Unknown
Orbital elements
Apogee altitude
500.785 km
Perigee altitude
496.155 km
Semi-major axis
6,876.607 km
Eccentricity
0.00034
Inclination
97.4163°
RAAN
310.8752°
Arg. of periapsis
82.7844°
True anomaly
277.33915°
Mean anomaly
277.3774°
Eccentric anomaly
277.35827°
Mean motion
3.80611 °/min
Orbital period
94.58 mins
BSTAR
0.00025067
Loading maneuver chart data...
Computing Atmospheric mass density...
Loading historical data...
Loading historical data...
Loading historical data...
Loading historical data...
Loading historical data...
Loading historical data...
Loading historical data...

Documentation

Showing up to 5 results
|